Wind_Speed
12 11 11 10 10 11 12 13 13 13 13 13 14 15 16 15 13 13 11 11 10 9 9 8 8 8 8 8 9 9 9 9 10 10 11 11 11 11 11 11 11 11 10 10 10 9 9 8 7
12 12 11 10 11 12 14 15 14 14 14 15 16 17 18 17 16 15 14 13 12 11 11 11 10 10 9 9 10 10 10 10 11 11 11 11 12 12 12 12 12 12 12 12 12 11 10 9 8
13 12 12 11 13 15 17 15 15 14 16 17 18 18 18 17 17 17 16 15 14 12 12 13 12 11 11 11 11 11 11 12 12 12 12 12 13 13 13 13 13 13 14 13 13 12 12 11 9
14 13 13 13 15 17 18 17 16 16 17 19 21 20 18 16 17 18 18 17 15 13 13 14 13 13 13 12 12 13 13 13 13 13 13 14 14 14 14 14 14 14 15 14 14 13 12 12 11
14 13 13 14 17 18 19 18 17 17 16 20 23 22 21 18 18 19 18 17 15 14 14 14 14 13 13 14 14 14 14 14 14 14 14 14 15 15 15 15 15 15 15 16 16 15 14 13 12
14 13 13 15 18 20 21 18 18 18 18 21 23 23 22 20 20 20 19 18 16 15 14 15 15 14 14 15 15 15 15 15 15 15 15 15 16 16 16 16 16 16 17 16 17 17 16 15 14
13 13 14 17 20 20 20 17 17 18 20 23 23 24 22 21 20 21 20 19 18 16 15 15 15 15 15 16 16 16 16 16 16 15 16 16 16 16 16 17 17 17 18 17 17 17 17 16 15
13 13 16 18 21 21 19 17 17 19 22 24 25 25 23 23 22 21 19 18 18 18 16 16 16 16 15 16 16 16 16 16 16 16 16 17 17 17 17 18 18 18 18 18 18 18 18 18 17
14 14 17 20 22 21 19 16 18 20 22 25 26 25 25 24 22 21 19 19 19 17 16 15 16 16 16 16 17 17 17 17 17 17 17 18 18 18 18 18 18 19 20 19 19 19 19 19 19
15 16 19 21 21 20 18 18 20 21 22 24 25 26 24 22 21 21 19 18 18 17 16 17 16 16 16 16 17 17 17 17 17 18 18 19 19 19 20 19 19 20 20 21 21 21 21 21 20
18 19 21 21 21 20 18 18 20 22 23 24 25 25 23 20 19 19 19 18 17 17 16 16 17 17 17 17 18 17 17 17 18 18 18 19 20 20 21 20 20 20 21 21 21 21 21 21 21
21 21 21 21 21 19 18 18 19 22 23 24 24 23 22 23 21 21 19 17 17 17 14 13 14 16 17 16 17 17 18 19 19 20 20 20 21 22 22 23 22 20 21 20 20 21 21 21 21
22 22 22 21 20 19 19 19 21 22 23 24 24 23 23 22 21 20 18 18 18 16 14 15 14 14 16 17 18 18 19 18 19 20 20 21 21 22 23 23 23 21 21 21 21 21 22 22 22
22 22 21 21 20 20 21 21 22 23 23 23 21 21 22 21 20 21 20 18 18 18 15 14 14 13 14 14 14 16 18 18 20 20 20 20 21 22 22 22 23 22 22 22 22 22 22 23 22
21 21 20 20 19 19 20 22 22 22 21 21 20 20 20 20 19 19 20 21 20 20 16 14 14 15 14 14 15 16 17 18 20 21 21 22 23 23 23 22 22 22 22 23 23 23 23 23 23
18 19 18 18 17 17 18 19 19 18 18 18 17 17 18 19 19 18 18 19 18 17 14 15 15 16 15 15 16 18 19 20 21 22 23 23 23 23 23 23 23 24 24 23 24 25 25 25 24
15 14 13 13 13 13 14 15 15 16 16 16 16 16 17 17 18 17 17 18 17 16 15 16 16 16 17 17 19 20 21 22 21 21 23 24 24 24 23 24 24 25 25 25 25 26 26 26 25
11 10 10 10 9 10 11 13 15 16 16 16 16 16 17 16 17 17 17 16 16 16 15 15 16 17 18 20 21 21 22 23 23 22 23 24 25 25 24 25 25 26 26 26 26 26 27 27 27
10 10 10 10 10 10 11 14 16 18 16 16 17 17 17 15 16 17 17 16 16 16 16 18 18 18 20 21 22 23 23 23 23 24 24 25 25 25 25 25 26 27 28 27 28 28 28 27 28
11 9 8 9 10 11 13 14 17 18 17 17 18 19 18 17 17 16 16 16 17 18 18 18 18 19 21 22 23 24 24 25 25 25 25 25 26 26 26 26 26 27 28 28 28 29 29 29 29
11 10 9 10 10 11 14 16 18 19 19 19 18 18 17 16 17 16 17 17 17 18 19 20 20 21 22 23 24 25 25 26 26 26 26 27 27 27 27 27 28 28 28 28 28 28 28 28 29
12 12 13 12 11 13 14 16 16 19 18 18 18 18 17 17 16 17 17 17 17 19 20 21 21 22 23 24 25 26 27 27 27 28 28 28 28 28 28 28 28 28 29 29 29 28 28 28 28
13 15 15 15 15 16 17 18 19 20 19 19 19 19 17 17 17 17 17 18 19 20 21 21 22 23 24 24 25 26 27 27 28 28 29 29 28 28 28 29 29 29 28 29 29 28 28 28 28
12 14 16 17 18 19 19 19 21 21 20 20 20 19 19 16 16 17 18 18 19 20 21 21 22 24 25 25 26 27 28 28 28 28 28 28 27 27 28 29 30 29 29 28 28 28 27 27 27
12 13 14 15 15 17 18 20 20 20 21 21 21 21 20 17 16 16 17 18 20 20 21 22 23 25 26 27 27 28 28 28 29 29 28 28 27 27 28 28 29 29 29 28 28 28 28 28 27
10 12 13 14 15 15 17 19 18 18 19 20 21 21 20 18 16 16 17 19 20 21 22 23 24 26 27 28 29 29 29 29 29 29 29 28 28 28 28 28 28 28 28 28 28 28 28 27 27
11 12 14 14 14 15 15 15 15 16 17 18 18 18 17 16 16 16 18 19 21 22 24 24 25 27 27 28 29 30 29 29 29 29 29 29 28 28 29 29 28 28 28 28 28 28 28 28 27
11 12 14 14 14 15 16 15 14 14 15 16 16 17 17 15 15 17 18 20 22 23 25 25 26 27 27 27 27 27 27 28 28 28 28 28 28 29 29 28 28 27 27 28 28 28 28 28 28
13 13 13 14 15 16 16 14 14 14 14 14 15 15 16 16 16 18 20 22 23 23 24 25 26 26 26 26 25 25 25 25 26 26 26 26 27 28 27 27 26 26 26 26 26 26 27 27 28
14 14 14 14 14 16 16 15 14 15 15 15 16 17 17 17 17 19 21 22 22 23 24 24 25 25 25 24 24 24 23 23 24 24 25 25 26 25 25 25 26 25 25 24 24 24 24 25 26
Wind_Direction
242 239 234 228 220 218 217 217 224 233 240 250 260 271 278 281 282 278 273 271 273 277 280 275 267 262 257 254 254 255 255 258 260 262 267 268 270 273 276 276 275 276 279 281 283 282 281 282 282
241 236 230 221 211 207 211 218 221 233 240 247 257 269 274 276 275 274 271 268 268 270 271 267 265 261 257 254 254 255 257 258 260 262 265 266 268 271 274 276 275 275 276 277 279 279 279 279 280
240 235 225 213 202 203 210 215 224 233 242 250 258 264 270 272 272 271 268 266 264 266 267 265 264 261 257 255 253 253 254 256 260 262 264 265 266 268 271 273 274 274 276 276 276 277 277 276 276
240 234 223 210 200 206 215 220 226 233 244 255 261 263 267 271 268 267 264 263 262 261 262 264 261 260 256 254 253 251 252 254 256 259 263 264 263 264 267 270 271 272 272 272 272 273 273 273 274
236 230 219 206 201 207 214 222 226 232 246 259 266 268 270 271 270 267 262 258 256 254 257 261 261 259 255 253 252 252 252 252 254 256 259 261 263 262 263 267 268 269 269 269 269 270 269 269 270
231 224 211 202 200 207 216 222 226 234 248 261 267 270 271 274 273 264 259 256 252 249 250 255 257 256 253 252 251 252 251 252 252 254 258 259 260 261 263 265 265 266 267 267 267 269 266 265 266
225 214 204 203 203 208 218 224 230 241 254 261 265 270 272 276 271 265 257 248 247 244 247 253 252 253 254 253 253 254 254 254 254 256 258 260 261 262 265 265 263 264 265 265 265 266 265 264 264
214 206 202 202 204 210 220 227 236 248 257 262 264 266 270 275 270 263 255 250 248 243 244 249 250 251 253 253 254 255 255 255 256 258 259 260 261 262 263 265 265 264 264 264 264 263 263 263 262
208 202 197 201 207 212 217 228 240 249 256 262 262 262 267 269 264 261 260 260 253 244 244 248 251 250 252 252 252 252 254 254 256 258 260 260 260 262 263 264 265 264 264 263 262 261 261 261 261
201 194 196 204 210 215 217 227 239 250 255 258 261 258 260 264 263 264 264 258 251 244 243 244 248 245 247 250 252 253 253 255 258 259 260 261 262 264 264 265 265 265 264 262 261 261 261 260 259
196 194 199 206 213 218 219 228 239 251 258 258 260 260 260 266 266 268 264 257 252 248 243 249 240 242 250 253 252 253 257 259 259 260 262 263 263 264 265 266 267 266 266 264 261 263 261 259 259
198 199 204 209 215 222 226 233 243 254 261 263 264 263 264 266 269 267 263 258 256 254 256 256 257 254 255 254 254 256 260 261 262 263 264 265 264 263 265 266 266 267 267 266 265 265 263 261 259
203 205 210 216 218 225 230 237 246 255 260 262 264 265 269 274 273 271 273 268 264 258 259 263 257 255 255 254 258 260 261 265 265 266 267 268 265 264 265 267 264 266 267 268 266 263 264 265 262
207 209 214 221 223 227 230 236 246 252 258 261 264 268 270 273 273 275 280 276 268 261 263 258 260 261 266 260 264 266 264 264 266 267 269 270 268 265 269 268 267 266 267 269 269 264 265 264 264
212 213 217 225 230 230 232 236 243 250 255 257 261 266 271 272 276 278 278 278 274 269 268 262 268 273 275 268 270 272 270 268 268 268 269 268 268 268 270 269 269 269 268 269 269 269 270 266 265
215 216 219 227 232 231 233 236 241 248 252 257 262 267 273 276 279 281 282 282 281 276 271 273 272 276 276 278 280 280 278 274 269 269 267 268 271 269 270 268 270 270 268 267 267 267 268 269 268
212 212 215 222 232 233 233 234 239 249 257 261 266 270 274 277 281 282 282 285 287 284 281 274 274 280 282 283 283 280 278 275 277 276 272 272 273 273 275 270 270 271 268 267 266 266 268 268 269
195 200 203 214 229 237 241 246 245 251 259 262 268 273 275 276 283 282 282 284 285 284 282 278 274 280 282 282 282 282 282 279 280 280 278 277 276 274 274 272 270 273 271 269 268 268 267 267 268
190 199 208 217 229 244 251 253 251 253 257 264 268 272 273 275 281 285 284 280 282 285 286 282 277 280 281 282 283 282 283 283 280 279 279 278 277 274 273 273 273 273 272 272 270 269 269 268 268
194 197 211 223 234 247 252 250 251 255 257 265 271 270 267 272 279 284 281 280 283 285 286 286 283 284 283 283 283 284 283 283 282 280 279 279 276 274 274 273 274 274 273 271 270 270 269 268 268
198 204 208 222 236 243 248 251 254 263 261 266 274 271 269 275 279 284 282 282 283 284 285 286 285 284 285 285 284 284 284 283 282 282 282 281 280 277 276 275 275 274 273 272 270 270 267 266 267
208 212 217 222 237 245 250 257 263 266 264 270 274 278 279 280 280 280 282 284 286 286 286 287 286 286 287 286 285 285 284 284 282 282 282 282 280 279 278 277 276 276 274 271 270 269 266 266 265
218 224 229 232 240 250 255 263 264 267 269 273 279 281 280 279 282 283 280 281 285 286 286 287 288 288 288 288 286 286 285 285 284 283 284 282 280 279 278 276 276 275 273 271 269 267 265 265 265
227 229 231 234 240 247 253 258 260 263 268 276 279 281 281 278 280 285 287 285 287 289 289 289 290 290 289 288 287 287 287 286 285 285 283 282 281 280 279 277 276 275 273 270 268 266 264 264 265
226 231 236 241 248 252 250 256 263 268 271 275 278 282 279 275 277 283 286 288 290 290 291 292 292 291 289 288 287 287 286 286 285 284 283 282 281 280 280 279 276 275 272 270 267 266 265 265 265
226 234 244 249 250 256 253 261 268 274 273 276 280 283 279 279 280 281 289 293 292 293 294 292 292 292 290 288 287 286 285 286 284 283 282 282 281 280 280 279 277 274 273 271 268 265 265 264 264
235 241 250 257 259 263 269 275 281 287 284 283 282 284 284 282 282 284 293 296 295 295 295 293 292 292 292 290 289 286 284 284 284 283 281 281 280 279 279 278 276 274 272 272 268 267 264 262 262
247 252 256 260 269 271 274 285 295 300 294 292 291 291 292 289 290 290 294 296 296 297 296 297 296 295 295 292 290 289 287 285 285 284 282 280 279 279 279 278 276 274 273 272 269 267 264 264 262
251 256 261 268 272 278 284 289 299 303 308 306 302 300 298 297 296 295 297 299 299 298 298 298 297 296 295 294 292 290 289 287 287 286 284 282 280 280 279 278 277 275 274 273 270 267 264 263 261
257 260 265 269 276 283 292 297 301 308 312 310 310 308 302 297 299 302 303 303 301 300 300 300 300 299 297 295 293 292 290 289 288 288 286 285 283 281 279 278 277 277 276 273 271 267 264 263 260
Height
5896 5898 5899 5901 5903 5903 5902 5903 5903 5903 5903 5904 5904 5904 5905 5907 5909 5910 5908 5907 5907 5907 5907 5907 5907 5908 5908 5908 5908 5908 5908 5909 5909 5909 5909 5909 5909 5909 5909 5909 5908 5908 5908 5908 5907 5907 5906 5905 5905
5894 5895 5898 5899 5900 5900 5900 5900 5900 5901 5901 5902 5903 5903 5904 5905 5906 5906 5906 5906 5905 5905 5905 5906 5906 5906 5906 5906 5906 5907 5907 5907 5907 5907 5907 5907 5907 5907 5907 5907 5907 5907 5907 5906 5906 5905 5905 5904 5904
5891 5892 5895 5896 5897 5897 5897 5898 5898 5899 5899 5900 5900 5901 5902 5904 5904 5903 5903 5904 5904 5904 5904 5904 5904 5904 5904 5904 5904 5905 5905 5905 5905 5905 5905 5905 5905 5906 5906 5906 5906 5906 5905 5905 5904 5904 5903 5903 5903
5888 5890 5892 5894 5894 5895 5895 5895 5895 5896 5897 5897 5898 5898 5900 5902 5902 5901 5901 5901 5901 5901 5901 5902 5902 5902 5902 5902 5902 5902 5902 5903 5903 5903 5903 5903 5903 5903 5904 5904 5904 5904 5903 5903 5902 5902 5901 5901 5901
5885 5887 5889 5890 5891 5892 5892 5892 5892 5893 5894 5895 5895 5896 5897 5899 5899 5898 5897 5898 5898 5899 5899 5899 5900 5900 5900 5900 5900 5900 5900 5900 5900 5901 5901 5901 5901 5901 5901 5901 5901 5901 5901 5901 5900 5900 5899 5899 5899
5882 5884 5886 5887 5888 5888 5888 5889 5890 5891 5891 5892 5892 5893 5893 5896 5895 5895 5894 5895 5895 5895 5896 5896 5897 5897 5897 5897 5897 5897 5897 5897 5898 5898 5898 5898 5898 5898 5898 5898 5899 5899 5899 5898 5898 5897 5897 5897 5897
5880 5882 5883 5884 5885 5885 5886 5887 5888 5888 5888 5888 5889 5890 5890 5892 5892 5892 5891 5891 5891 5892 5893 5893 5894 5894 5894 5894 5894 5894 5894 5895 5895 5895 5895 5895 5895 5895 5895 5895 5895 5896 5896 5895 5895 5895 5894 5894 5894
5876 5879 5880 5881 5882 5882 5883 5884 5884 5885 5885 5885 5886 5887 5887 5888 5888 5888 5887 5887 5887 5888 5889 5890 5891 5891 5891 5891 5891 5892 5891 5892 5892 5892 5892 5892 5892 5892 5892 5892 5892 5892 5892 5892 5892 5891 5891 5891 5891
5874 5877 5877 5878 5878 5879 5880 5881 5882 5882 5883 5883 5883 5884 5884 5884 5883 5884 5884 5884 5884 5885 5886 5887 5888 5888 5888 5888 5888 5888 5888 5888 5888 5888 5888 5888 5888 5888 5888 5888 5888 5888 5888 5888 5888 5888 5888 5888 5888
5871 5873 5874 5874 5875 5875 5876 5878 5879 5879 5880 5880 5879 5880 5880 5879 5879 5880 5880 5880 5880 5881 5882 5883 5884 5885 5885 5884 5884 5884 5884 5884 5884 5884 5884 5885 5885 5885 5884 5884 5884 5884 5884 5884 5884 5884 5884 5884 5884
5867 5869 5870 5871 5871 5872 5873 5875 5876 5877 5877 5877 5877 5877 5878 5877 5877 5877 5877 5876 5876 5876 5878 5880 5880 5880 5881 5881 5880 5880 5880 5881 5881 5881 5880 5881 5881 5880 5880 5880 5879 5879 5879 5879 5880 5880 5880 5880 5880
5864 5865 5866 5867 5868 5870 5870 5872 5874 5874 5874 5875 5874 5874 5875 5875 5874 5874 5874 5872 5872 5873 5874 5876 5875 5876 5876 5876 5876 5875 5876 5876 5876 5877 5876 5876 5876 5876 5875 5875 5875 5875 5875 5875 5875 5875 5875 5875 5876
5860 5862 5863 5864 5866 5867 5868 5869 5870 5870 5871 5871 5871 5871 5872 5871 5871 5870 5871 5870 5870 5870 5870 5871 5871 5871 5871 5871 5872 5872 5872 5872 5872 5872 5872 5871 5871 5870 5871 5870 5870 5870 5870 5870 5870 5871 5871 5871 5871
5857 5858 5860 5861 5863 5864 5866 5867 5868 5868 5868 5869 5869 5868 5869 5869 5868 5868 5868 5868 5868 5868 5867 5867 5866 5865 5867 5868 5868 5868 5868 5868 5868 5867 5866 5866 5866 5865 5866 5865 5865 5865 5865 5865 5865 5865 5866 5866 5866
5853 5855 5857 5858 5860 5861 5863 5864 5864 5865 5865 5866 5866 5866 5866 5866 5866 5865 5865 5865 5864 5863 5863 5863 5862 5862 5863 5864 5864 5863 5863 5863 5862 5861 5861 5861 5861 5860 5860 5860 5860 5860 5860 5860 5860 5860 5861 5861 5861
5851 5853 5855 5856 5857 5858 5861 5861 5862 5862 5862 5862 5863 5863 5863 5862 5863 5863 5862 5862 5860 5858 5859 5860 5860 5859 5859 5858 5858 5858 5858 5858 5857 5856 5856 5855 5855 5855 5855 5855 5855 5854 5854 5854 5855 5855 5855 5855 5856
5849 5850 5852 5854 5854 5855 5857 5857 5859 5858 5859 5859 5860 5860 5860 5860 5859 5859 5859 5858 5857 5856 5856 5856 5856 5855 5854 5854 5853 5853 5853 5852 5850 5850 5850 5849 5849 5849 5849 5849 5848 5848 5848 5848 5848 5849 5849 5850 5850
5847 5848 5849 5851 5852 5853 5854 5855 5855 5855 5855 5856 5857 5857 5857 5857 5856 5855 5855 5853 5853 5853 5852 5852 5852 5851 5850 5850 5849 5848 5848 5846 5845 5844 5843 5843 5843 5843 5843 5842 5842 5842 5842 5842 5842 5842 5843 5843 5843
5844 5845 5847 5848 5849 5850 5851 5852 5852 5852 5852 5853 5853 5853 5853 5853 5853 5852 5851 5850 5850 5849 5849 5848 5847 5846 5846 5846 5845 5844 5843 5841 5840 5839 5838 5837 5837 5837 5837 5836 5835 5835 5835 5834 5835 5835 5835 5836 5836
5841 5842 5844 5845 5847 5848 5848 5849 5848 5848 5849 5849 5849 5849 5849 5849 5850 5850 5848 5847 5847 5846 5845 5843 5842 5842 5841 5840 5839 5838 5837 5835 5834 5833 5832 5831 5831 5830 5830 5830 5829 5828 5828 5827 5827 5828 5828 5829 5829
5839 5841 5842 5843 5844 5845 5846 5846 5845 5845 5845 5845 5845 5845 5846 5846 5846 5845 5845 5844 5843 5842 5840 5839 5838 5837 5836 5835 5833 5832 5831 5830 5828 5826 5825 5824 5823 5823 5822 5822 5822 5821 5820 5820 5820 5820 5820 5821 5821
5837 5838 5840 5841 5842 5842 5844 5843 5842 5842 5841 5841 5841 5841 5842 5841 5841 5841 5840 5838 5838 5837 5836 5835 5833 5832 5830 5829 5827 5826 5824 5823 5821 5820 5818 5817 5816 5815 5815 5814 5814 5813 5813 5812 5812 5813 5813 5813 5814
5835 5836 5837 5838 5839 5840 5840 5841 5840 5838 5837 5838 5838 5838 5838 5837 5836 5836 5835 5834 5833 5832 5831 5829 5827 5826 5824 5822 5821 5819 5817 5816 5814 5813 5811 5810 5808 5808 5807 5806 5806 5805 5805 5805 5805 5805 5805 5806 5806
5832 5834 5835 5835 5836 5837 5837 5838 5837 5835 5835 5834 5834 5834 5833 5833 5832 5831 5830 5829 5828 5827 5825 5823 5821 5819 5818 5816 5814 5812 5810 5809 5807 5805 5804 5802 5801 5800 5799 5798 5798 5797 5797 5797 5797 5797 5797 5798 5798
5830 5832 5833 5833 5833 5834 5834 5834 5834 5832 5832 5831 5830 5829 5828 5828 5827 5826 5826 5824 5823 5821 5819 5816 5814 5813 5811 5809 5806 5804 5803 5801 5799 5798 5796 5795 5793 5792 5791 5790 5790 5789 5789 5789 5789 5789 5789 5790 5790
5828 5829 5830 5830 5831 5831 5831 5830 5831 5830 5827 5826 5825 5824 5823 5823 5822 5821 5820 5819 5817 5815 5812 5810 5808 5806 5804 5801 5799 5797 5795 5793 5791 5790 5788 5787 5786 5785 5784 5783 5782 5781 5781 5781 5781 5781 5781 5782 5782
5825 5826 5827 5827 5827 5828 5827 5827 5827 5826 5823 5821 5820 5820 5819 5818 5817 5816 5814 5813 5811 5808 5806 5804 5801 5799 5796 5793 5791 5789 5787 5785 5783 5782 5780 5779 5778 5777 5776 5775 5774 5773 5773 5772 5772 5772 5773 5773 5774
5823 5823 5824 5824 5824 5824 5824 5824 5824 5821 5819 5818 5817 5816 5815 5814 5812 5811 5809 5807 5804 5802 5799 5796 5794 5791 5788 5785 5783 5781 5779 5777 5775 5774 5772 5771 5770 5769 5767 5766 5765 5765 5765 5764 5764 5764 5764 5765 5766
5821 5821 5820 5820 5820 5820 5819 5822 5820 5818 5817 5815 5813 5812 5810 5809 5807 5805 5803 5801 5798 5795 5792 5789 5786 5783 5781 5778 5775 5773 5771 5769 5768 5766 5765 5763 5762 5761 5759 5758 5757 5757 5756 5756 5756 5756 5756 5756 5757
5818 5818 5818 5818 5817 5817 5816 5819 5815 5815 5813 5812 5810 5808 5806 5804 5803 5800 5798 5795 5792 5789 5786 5783 5779 5776 5774 5771 5769 5766 5764 5762 5761 5759 5757 5756 5754 5753 5751 5750 5750 5749 5749 5748 5748 5748 5748 5749 5749